Time,TemperatureF,DewpointF,PressureIn,WindDirection,WindDirectionDegrees,WindSpeedMPH,WindSpeedGustMPH,Humidity,HourlyPrecipIn,Conditions,Clouds,dailyrainin,SoftwareType,DateUTC
2013-02-03 00:04:00,52.8,52.0,30.22,North,355,4.0,9.0,97,0.00,,,0.00,weatherlink.com 1.10,2013-02-03 06:04:00,
2013-02-03 00:20:00,55.0,53.0,30.23,NW,315,2.0,6.0,92,0.00,,,0.00,weatherlink.com 1.10,2013-02-03 06:20:00,
2013-02-03 00:35:00,55.3,53.0,30.23,NW,318,0.0,3.0,90,0.00,,,0.00,weatherlink.com 1.10,2013-02-03 06:35:00,
2013-02-03 00:50:00,54.8,52.0,30.22,NW,318,0.0,0.0,90,0.00,,,0.00,weatherlink.com 1.10,2013-02-03 06:50:00,
2013-02-03 01:05:00,53.8,51.0,30.22,NW,318,0.0,1.0,91,0.00,,,0.00,weatherlink.com 1.10,2013-02-03 07:05:00,
2013-02-03 01:20:00,52.5,50.0,30.23,NW,318,0.0,0.0,92,0.00,,,0.00,weatherlink.com 1.10,2013-02-03 07:20:00,
2013-02-03 01:35:00,51.8,50.0,30.22,NW,318,0.0,0.0,94,0.00,,,0.00,weatherlink.com 1.10,2013-02-03 07:35:00,
2013-02-03 01:50:00,51.3,50.0,30.22,NW,318,0.0,0.0,94,0.00,,,0.00,weatherlink.com 1.10,2013-02-03 07:50:00,
2013-02-03 02:05:00,50.4,49.0,30.22,NW,318,0.0,0.0,94,0.00,,,0.00,weatherlink.com 1.10,2013-02-03 08:05:00,
2013-02-03 02:20:00,49.7,48.0,30.22,NW,318,0.0,0.0,95,0.00,,,0.00,weatherlink.com 1.10,2013-02-03 08:20:00,
2013-02-03 02:35:00,48.9,48.0,30.22,NW,318,0.0,0.0,95,0.00,,,0.00,weatherlink.com 1.10,2013-02-03 08:35:00,
2013-02-03 02:50:00,48.5,48.0,30.22,NW,318,1.0,1.0,96,0.00,,,0.00,weatherlink.com 1.10,2013-02-03 08:50:00,
2013-02-03 03:05:00,48.0,47.0,30.21,NW,318,0.0,0.0,96,0.00,,,0.00,weatherlink.com 1.10,2013-02-03 09:05:00,
2013-02-03 03:20:00,47.4,46.0,30.21,NW,318,0.0,0.0,96,0.00,,,0.00,weatherlink.com 1.10,2013-02-03 09:20:00,
2013-02-03 03:35:00,46.9,46.0,30.21,NW,318,0.0,0.0,96,0.00,,,0.00,weatherlink.com 1.10,2013-02-03 09:35:00,
2013-02-03 03:50:00,46.2,45.0,30.21,NW,318,0.0,0.0,96,0.00,,,0.00,weatherlink.com 1.10,2013-02-03 09:50:00,
2013-02-03 04:05:00,45.7,45.0,30.21,NW,318,0.0,1.0,96,0.00,,,0.00,weatherlink.com 1.10,2013-02-03 10:05:00,
2013-02-03 04:20:00,45.1,44.0,30.22,NW,318,0.0,0.0,96,0.00,,,0.00,weatherlink.com 1.10,2013-02-03 10:20:00,
2013-02-03 04:35:00,44.8,44.0,30.22,NW,318,0.0,0.0,97,0.00,,,0.00,weatherlink.com 1.10,2013-02-03 10:35:00,
2013-02-03 04:50:00,44.7,44.0,30.22,NW,318,0.0,0.0,97,0.00,,,0.00,weatherlink.com 1.10,2013-02-03 10:50:00,
2013-02-03 05:05:00,44.6,44.0,30.23,NW,318,0.0,0.0,97,0.00,,,0.00,weatherlink.com 1.10,2013-02-03 11:05:00,
2013-02-03 05:20:00,44.6,44.0,30.23,NW,318,0.0,0.0,98,0.00,,,0.00,weatherlink.com 1.10,2013-02-03 11:20:00,
2013-02-03 05:35:00,44.7,44.0,30.23,NW,318,0.0,0.0,98,0.00,,,0.00,weatherlink.com 1.10,2013-02-03 11:35:00,
2013-02-03 05:50:00,44.6,44.0,30.23,NW,318,0.0,0.0,98,0.00,,,0.00,weatherlink.com 1.10,2013-02-03 11:50:00,
2013-02-03 06:05:00,43.8,43.0,30.24,NW,318,0.0,1.0,97,0.00,,,0.00,weatherlink.com 1.10,2013-02-03 12:05:00,
2013-02-03 06:20:00,43.2,42.0,30.25,NW,318,0.0,0.0,97,0.00,,,0.00,weatherlink.com 1.10,2013-02-03 12:20:00,
2013-02-03 06:35:00,42.6,42.0,30.25,NW,318,0.0,0.0,97,0.00,,,0.00,weatherlink.com 1.10,2013-02-03 12:35:00,
2013-02-03 06:50:00,42.0,41.0,30.25,NW,318,0.0,0.0,97,0.00,,,0.00,weatherlink.com 1.10,2013-02-03 12:50:00,
2013-02-03 07:05:00,41.4,41.0,30.26,NW,318,0.0,0.0,97,0.00,,,0.00,weatherlink.com 1.10,2013-02-03 13:05:00,
2013-02-03 07:20:00,41.1,40.0,30.26,NW,318,0.0,0.0,97,0.00,,,0.00,weatherlink.com 1.10,2013-02-03 13:20:00,
2013-02-03 07:35:00,41.3,41.0,30.26,NW,318,0.0,0.0,98,0.00,,,0.00,weatherlink.com 1.10,2013-02-03 13:35:00,
2013-02-03 07:50:00,42.0,42.0,30.27,NW,318,0.0,0.0,98,0.00,,,0.00,weatherlink.com 1.10,2013-02-03 13:50:00,
2013-02-03 08:05:00,43.7,44.0,30.27,NW,318,0.0,1.0,99,0.00,,,0.00,weatherlink.com 1.10,2013-02-03 14:05:00,
2013-02-03 08:20:00,46.5,46.0,30.26,NW,318,1.0,3.0,99,0.00,,,0.00,weatherlink.com 1.10,2013-02-03 14:20:00,
2013-02-03 08:35:00,49.6,49.0,30.27,NNW,328,0.0,1.0,99,0.00,,,0.00,weatherlink.com 1.10,2013-02-03 14:35:00,
2013-02-03 08:50:00,51.8,52.0,30.28,NNW,328,0.0,0.0,99,0.00,,,0.00,weatherlink.com 1.10,2013-02-03 14:50:00,
2013-02-03 09:05:00,54.6,51.0,30.28,NNW,328,2.0,3.0,87,0.00,,,0.00,weatherlink.com 1.10,2013-02-03 15:05:00,
2013-02-03 09:20:00,57.1,50.0,30.28,NW,325,2.0,4.0,77,0.00,,,0.00,weatherlink.com 1.10,2013-02-03 15:20:00,
2013-02-03 09:36:00,58.7,49.0,30.28,NW,319,3.0,8.0,70,0.00,,,0.00,weatherlink.com 1.10,2013-02-03 15:36:00,
2013-02-03 09:52:00,59.9,48.0,30.28,NW,311,3.0,7.0,64,0.00,,,0.00,weatherlink.com 1.10,2013-02-03 15:52:00,
2013-02-03 10:06:00,61.0,48.0,30.28,WNW,290,2.0,5.0,63,0.00,,,0.00,weatherlink.com 1.10,2013-02-03 16:06:00,
2013-02-03 10:21:00,61.4,45.0,30.28,West,281,3.0,8.0,56,0.00,,,0.00,weatherlink.com 1.10,2013-02-03 16:21:00,
2013-02-03 10:35:00,62.1,46.0,30.28,NE,41,4.0,8.0,55,0.00,,,0.00,weatherlink.com 1.10,2013-02-03 16:35:00,
2013-02-03 10:50:00,63.2,42.0,30.27,NW,304,5.0,11.0,46,0.00,,,0.00,weatherlink.com 1.10,2013-02-03 16:50:00,
2013-02-03 11:05:00,63.2,42.0,30.27,West,278,7.0,9.0,47,0.00,,,0.00,weatherlink.com 1.10,2013-02-03 17:05:00,
2013-02-03 11:20:00,64.0,43.0,30.27,North,355,3.0,9.0,46,0.00,,,0.00,weatherlink.com 1.10,2013-02-03 17:20:00,
2013-02-03 11:36:00,64.4,42.0,30.26,NNE,13,7.0,9.0,44,0.00,,,0.00,weatherlink.com 1.10,2013-02-03 17:36:00,
2013-02-03 11:51:00,65.0,41.0,30.25,NW,325,4.0,10.0,41,0.00,,,0.00,weatherlink.com 1.10,2013-02-03 17:51:00,
2013-02-03 12:06:00,65.5,37.0,30.24,WNW,300,7.0,11.0,35,0.00,,,0.00,weatherlink.com 1.10,2013-02-03 18:06:00,
2013-02-03 12:21:00,66.0,37.0,30.23,WNW,302,6.0,12.0,34,0.00,,,0.00,weatherlink.com 1.10,2013-02-03 18:21:00,
2013-02-03 12:36:00,66.0,35.0,30.22,NNW,329,5.0,16.0,32,0.00,,,0.00,weatherlink.com 1.10,2013-02-03 18:36:00,
2013-02-03 12:51:00,66.6,31.0,30.21,WNW,285,9.0,11.0,26,0.00,,,0.00,weatherlink.com 1.10,2013-02-03 18:51:00,
2013-02-03 13:06:00,67.0,30.0,30.20,NNE,24,6.0,12.0,25,0.00,,,0.00,weatherlink.com 1.10,2013-02-03 19:06:00,
2013-02-03 13:21:00,67.7,31.0,30.20,NE,34,6.0,12.0,26,0.00,,,0.00,weatherlink.com 1.10,2013-02-03 19:21:00,
2013-02-03 13:36:00,67.9,34.0,30.19,NNE,17,4.0,11.0,29,0.00,,,0.00,weatherlink.com 1.10,2013-02-03 19:36:00,
2013-02-03 13:51:00,68.5,31.0,30.18,WNW,292,5.0,11.0,25,0.00,,,0.00,weatherlink.com 1.10,2013-02-03 19:51:00,
2013-02-03 14:06:00,68.2,30.0,30.18,NW,319,9.0,14.0,24,0.00,,,0.00,weatherlink.com 1.10,2013-02-03 20:06:00,
2013-02-03 14:21:00,68.7,29.0,30.17,North,350,6.0,9.0,23,0.00,,,0.00,weatherlink.com 1.10,2013-02-03 20:21:00,
2013-02-03 14:36:00,68.6,30.0,30.16,NNW,347,4.0,8.0,24,0.00,,,0.00,weatherlink.com 1.10,2013-02-03 20:36:00,
2013-02-03 14:51:00,68.8,32.0,30.16,WNW,291,6.0,9.0,26,0.00,,,0.00,weatherlink.com 1.10,2013-02-03 20:51:00,
2013-02-03 15:06:00,68.9,31.0,30.16,NNW,345,4.0,10.0,24,0.00,,,0.00,weatherlink.com 1.10,2013-02-03 21:06:00,
2013-02-03 15:21:00,69.0,31.0,30.16,NNW,331,6.0,7.0,24,0.00,,,0.00,weatherlink.com 1.10,2013-02-03 21:21:00,
2013-02-03 15:36:00,69.2,31.0,30.15,NE,48,5.0,9.0,24,0.00,,,0.00,weatherlink.com 1.10,2013-02-03 21:36:00,
2013-02-03 15:51:00,68.9,29.0,30.15,NNW,343,3.0,7.0,23,0.00,,,0.00,weatherlink.com 1.10,2013-02-03 21:51:00,
2013-02-03 16:06:00,68.8,29.0,30.15,North,10,8.0,8.0,23,0.00,,,0.00,weatherlink.com 1.10,2013-02-03 22:06:00,
2013-02-03 16:21:00,68.0,30.0,30.15,NE,39,3.0,8.0,24,0.00,,,0.00,weatherlink.com 1.10,2013-02-03 22:21:00,
2013-02-03 16:36:00,67.7,30.0,30.14,NW,308,3.0,5.0,24,0.00,,,0.00,weatherlink.com 1.10,2013-02-03 22:36:00,
2013-02-03 16:52:00,67.2,30.0,30.14,NNW,346,2.0,6.0,25,0.00,,,0.00,weatherlink.com 1.10,2013-02-03 22:52:00,
2013-02-03 17:07:00,66.8,32.0,30.14,NW,321,2.0,6.0,27,0.00,,,0.00,weatherlink.com 1.10,2013-02-03 23:07:00,
2013-02-03 17:21:00,65.5,36.0,30.14,NW,321,0.0,0.0,33,0.00,,,0.00,weatherlink.com 1.10,2013-02-03 23:21:00,
2013-02-03 17:36:00,63.1,38.0,30.14,NW,321,0.0,0.0,39,0.00,,,0.00,weatherlink.com 1.10,2013-02-03 23:36:00,
2013-02-03 17:51:00,60.3,38.0,30.14,NW,321,0.0,0.0,44,0.00,,,0.00,weatherlink.com 1.10,2013-02-03 23:51:00,
2013-02-03 18:06:00,57.5,38.0,30.14,NW,321,0.0,0.0,49,0.00,,,0.00,weatherlink.com 1.10,2013-02-04 00:06:00,
2013-02-03 18:21:00,55.2,40.0,30.14,NW,321,0.0,0.0,56,0.00,,,0.00,weatherlink.com 1.10,2013-02-04 00:21:00,
2013-02-03 18:36:00,53.2,39.0,30.14,NW,321,0.0,0.0,60,0.00,,,0.00,weatherlink.com 1.10,2013-02-04 00:36:00,
2013-02-03 18:51:00,51.4,39.0,30.14,NW,321,0.0,0.0,62,0.00,,,0.00,weatherlink.com 1.10,2013-02-04 00:51:00,
2013-02-03 19:07:00,50.1,39.0,30.14,NW,321,0.0,0.0,65,0.00,,,0.00,weatherlink.com 1.10,2013-02-04 01:07:00,
2013-02-03 19:21:00,49.0,39.0,30.14,NW,321,0.0,0.0,68,0.00,,,0.00,weatherlink.com 1.10,2013-02-04 01:21:00,
2013-02-03 19:36:00,47.9,38.0,30.14,NW,321,0.0,0.0,69,0.00,,,0.00,weatherlink.com 1.10,2013-02-04 01:36:00,
2013-02-03 19:51:00,47.0,38.0,30.14,NW,321,0.0,0.0,72,0.00,,,0.00,weatherlink.com 1.10,2013-02-04 01:51:00,
2013-02-03 20:07:00,46.3,39.0,30.14,NW,321,0.0,0.0,75,0.00,,,0.00,weatherlink.com 1.10,2013-02-04 02:07:00,
2013-02-03 20:22:00,45.5,39.0,30.14,NW,321,0.0,0.0,77,0.00,,,0.00,weatherlink.com 1.10,2013-02-04 02:22:00,
2013-02-03 20:37:00,44.8,39.0,30.14,NW,321,0.0,0.0,80,0.00,,,0.00,weatherlink.com 1.10,2013-02-04 02:37:00,
2013-02-03 20:51:00,44.2,39.0,30.14,NW,321,0.0,0.0,81,0.00,,,0.00,weatherlink.com 1.10,2013-02-04 02:51:00,
2013-02-03 21:06:00,43.6,39.0,30.14,NW,321,0.0,0.0,84,0.00,,,0.00,weatherlink.com 1.10,2013-02-04 03:06:00,
2013-02-03 21:21:00,43.1,39.0,30.14,NW,321,0.0,0.0,85,0.00,,,0.00,weatherlink.com 1.10,2013-02-04 03:21:00,
2013-02-03 21:36:00,42.8,39.0,30.14,NW,321,0.0,0.0,87,0.00,,,0.00,weatherlink.com 1.10,2013-02-04 03:36:00,
2013-02-03 21:51:00,42.3,39.0,30.14,NW,321,0.0,0.0,88,0.00,,,0.00,weatherlink.com 1.10,2013-02-04 03:51:00,
2013-02-03 22:06:00,42.0,39.0,30.14,NW,321,0.0,0.0,89,0.00,,,0.00,weatherlink.com 1.10,2013-02-04 04:06:00,
2013-02-03 22:21:00,41.5,39.0,30.13,NW,321,0.0,0.0,90,0.00,,,0.00,weatherlink.com 1.10,2013-02-04 04:21:00,
2013-02-03 22:36:00,41.1,38.0,30.13,NW,321,0.0,0.0,89,0.00,,,0.00,weatherlink.com 1.10,2013-02-04 04:36:00,
2013-02-03 22:51:00,40.8,38.0,30.12,NW,321,0.0,0.0,90,0.00,,,0.00,weatherlink.com 1.10,2013-02-04 04:51:00,
2013-02-03 23:06:00,40.6,38.0,30.12,NW,321,0.0,0.0,91,0.00,,,0.00,weatherlink.com 1.10,2013-02-04 05:06:00,
2013-02-03 23:22:00,40.4,38.0,30.11,NW,321,0.0,0.0,92,0.00,,,0.00,weatherlink.com 1.10,2013-02-04 05:22:00,
2013-02-03 23:37:00,40.2,38.0,30.11,NW,321,0.0,0.0,93,0.00,,,0.00,weatherlink.com 1.10,2013-02-04 05:37:00,
2013-02-03 23:52:00,40.2,39.0,30.10,NW,321,0.0,0.0,94,0.00,,,0.00,weatherlink.com 1.10,2013-02-04 05:52:00,